Tracking 19562 objects as of 21-Mar-2019
HD Live streaming from Space Station
objects crossing your sky now

HETE 2

Track HETE 2 now!
10-day predictions
HETE 2 is classified as:


NORAD ID: 26561
Int'l Code: 2000-061A
Perigee: 537.1 km
Apogee: 562.5 km
Inclination: 1.9 °
Period: 95.5 minutes
Semi major axis: 6920 km
RCS: 0.631 m2 (medium)
Launch date: October 9, 2000
Source: United States (US)
Launch site: Kwajalein (KWAJ)

Designed to detect and localize gamma-ray bursts.
aabbcc
Your satellite tracking list
Your tracking list is empty




NASA's NSSDC Master Catalog

Two Line Element Set (TLE):
1 26561U 00061A   19080.10382790  .00001338  00000-0  27788-4 0  9996
2 26561   1.9490 261.4979 0018341 263.8169  95.9783 15.07880867 11895
Source of the keplerian elements: AFSPC